Regional Weather Roundup
Issued by NWS

Home | Current Version | Previous Version | Graphics & Text | Print | Product List | Glossary On
Versions: 1 2 3 4 5 6 7 8 9 10 11 12 13 14 15 16 17 18 19 20 21 22 23 24 25 26 27 28 29 30 31 32 33 34 35 36 37 38 39 40 41 42 43 44 45 46 47 48 49 50
000
ASUS45 KTFX 251904
RWRMT
MONTANA HOURLY WEATHER ROUNDUP
NATIONAL WEATHER SERVICE GREAT FALLS MT
1204 PM MST TUE NOV 25 2014

NOTE: "FAIR" INDICATES FEW OR NO CLOUDS BELOW 12000 FEET WITH NO
SIGNIFICANT WEATHER AND/OR OBSTRUCTIONS TO VISIBILITY.

* THESE STATIONS ARE NOT UNDER NWS QUALITY CONTROL. THEY DO NOT
   REPORT WEATHER SUCH AS PRECIPITATION OR FOG.

MTZ001>007-043-252000-
WEST OF THE DIVIDE
CITY           SKY/WX    TMP DP  RH WIND       PRES   REMARKS
KALISPELL      FOG       34  32  92 CALM      30.07R
MISSOULA       LGT RAIN  36  34  92 VRB3      30.10R VSB 3
BUTTE          LGT SNOW  34  32  92 NW7       30.00R VSB 1 3/4 WCI  28
MULLAN PASS    SNOW      28  27  96 N7        30.07R VSB M1/4 WCI  21
* ESSEX        N/A       36  31  82 S1G6       N/A
* LINCOLN      N/A       35  33  92 S4G9       N/A
* LOOKOUT PASS N/A       31  31 100 VRB7       N/A   WCI  24
* POLSON       N/A       35  34  96 S1         N/A
* RONAN APT    CLOUDY    37  36  96 N/A        N/A
* SEELEY LAKE  N/A       33  30  89 N7G23      N/A   WCI  27
* THOMP F APT  CLOUDY    30  23  75 SE3        N/A
* YAAK HILL    N/A       35  33  92 N1         N/A
$$

MTZ008-052>055-252000-
SOUTHWEST MONTANA
CITY           SKY/WX    TMP DP  RH WIND       PRES   REMARKS
BOZEMAN        CLOUDY    37  34  89 N7        29.97R WCI  32
* W YELLOWSTON CLOUDY    27  24  88 SW6G15     N/A   WCI  20
* ENNIS APT    CLOUDY    37  34  89 SE8        N/A   WCI  31
* THREE FORKS  CLOUDY    45  37  74 W9         N/A
* BOULDER HILL N/A       35  29  79 N6         N/A   WCI  30
* MONIDA PASS  N/A       25  23  92 SE15       N/A   WCI  13
* RAYNOLDS PAS N/A       25   6  44 SE16       N/A   WCI  12
* WHITEHALL    N/A       42  36  79 NW7G15     N/A
* WISE RIVER   N/A       36  32  85 W7G14      N/A   WCI  30
$$

MTZ009>010-012-014-046-048-049-054-252000-
EAST SLOPES AND CENTRAL MONTANA
CITY           SKY/WX    TMP DP  RH WIND       PRES   REMARKS
CUT BANK       CLOUDY    36  19  50 N20       30.00R WCI  25
GREAT FALLS    LGT SNOW  34  27  76 N17       30.01R WCI  23
HELENA         N/A       37  34  89 CALM      30.00R
MALMSTROM AFB  RAINSNOW  34  27  76 N16G28    30.03R WCI  24
* DEARBORN     N/A       40  34  79 S1         N/A
* EAST GLACIER N/A       31  20  64 E10        N/A   WCI  22
* MONARCH      N/A       27  24  88 N17G24     N/A   WCI  14
* PENDROY      N/A       32  23  69 NE10G16    N/A   WCI  24
* ROGERS PASS  N/A       32  30  92 SE2        N/A
* SAINT MARY   N/A       33  20  59 N7G13      N/A   WCI  27
* SWEET GRASS  N/A       32  21  64 VRB22G29    N/A   WCI  19
$$

MTZ011-013-016-021-035-040-045-047-050-051-252000-
NORTH CENTRAL MONTANA
CITY           SKY/WX    TMP DP  RH WIND       PRES   REMARKS
HAVRE          PTSUNNY   37  25  62 NW29G39   29.93R WCI  25
LEWISTOWN      LGT SNOW  32  28  85 NW13G18   29.95R VSB 3    WCI  22
* N BAR RANCH  FOG       32  27  82 N23G31    29.91R VSB 3/4  WCI  19
* CHESTER      N/A       36  22  57 N16G24     N/A   WCI  26
* DENTON       N/A       33  31  92 W11G16     N/A   WCI  24
* GEYSER       N/A       30  30 100 N9G16      N/A   WCI  22
* JUDITH GAP   N/A       29  29 100 N29G37     N/A   WCI  14
* LOMA         N/A       39  23  53 NW18G25    N/A   WCI  30
$$

MTZ017>020-022>027-061-062-252000-
NORTHEAST MONTANA
CITY           SKY/WX    TMP DP  RH WIND       PRES   REMARKS
GLASGOW        CLOUDY    37  28  70 NW25G32   29.77R WCI  25
GLENDIVE       CLOUDY    37  30  76 W24G32    29.72F WCI  26
JORDAN         CLOUDY    36  30  79 W15       29.81S WCI  27
SIDNEY         CLOUDY    39  30  70 W17G28    29.69F WCI  30
WOLF POINT     PTSUNNY   39  28  65 NW25G36   29.74R WCI  28
* BEAVER HILL  N/A       35  31  85 W20G26     N/A   WCI  24
* CIRCLE       N/A       38  33  82 W10G17     N/A   WCI  31
* LINDSAY DVD  N/A       36  31  82 W26        N/A   WCI  24
* NAVAJO       N/A       32  27  82 NW21G26    N/A   WCI  20
$$

MTZ028>042-056>058-252000-
SOUTHCENTRAL AND SOUTHEAST MONTANA
CITY           SKY/WX    TMP DP  RH WIND       PRES   REMARKS
BAKER          CLOUDY    36  32  85 W21       29.73S WCI  25
BILLINGS       CLOUDY    37  34  89 NW15      29.90R WCI  28
LIVINGSTON     LGT RAIN  39 N/A N/A W16G26    29.92R WCI  30
MILES CITY     CLOUDY    37  34  89 NW21G30   29.80R WCI  26
* LAUREL APT   CLOUDY    37  30  76 NW11G20    N/A   WCI  29
* ALZADA       N/A       34  32  92 W13        N/A   WCI  25
* HYSHAM       N/A       35  32  89 W9G18      N/A   WCI  28
* LAME DEER    N/A       31  30  96 NW12G18    N/A   WCI  22
* REED POINT   N/A       37  36  96 NW17       N/A   WCI  27
* ROSCOE HILL  N/A       41  21  45 NW8G20     N/A
$$

REGIONAL REPORTS...DAKOTAS
CITY           SKY/WX    TMP DP  RH WIND       PRES   REMARKS
WILLISTON      CLOUDY    36  30  79 W8        29.67F WCI  30
DICKINSON      LGT SNOW  34  32  92 W17       29.65S WCI  23
BEACH          CLOUDY    34  34 100 W18G26    29.71S WCI  23
CROSBY         LGT SNOW  27  27 100 NE17G22   29.70R VSB 1    WCI  14
BISMARCK       LGT SNOW  30  28  92 S13       29.74F VSB 3/4  WCI  20
GRAND FORKS    CLOUDY    21  16  81 E6        29.94F WCI  13
FARGO          CLOUDY    27  18  69 SE7       29.94F WCI  19
BUFFALO SD     CLOUDY    36  30  79 W23       29.66S WCI  24
RAPID CITY     CLOUDY    34  30  85 N9        29.76F WCI  27
$$

REGIONAL REPORTS...WYOMING/IDAHO/WASHINGTON
CITY           SKY/WX    TMP DP  RH WIND       PRES   REMARKS
GILLETTE       LGT SNOW  34  30  85 W15       29.81S VSB 1    WCI  24
SHERIDAN       LGT SNOW  34  30  85 NW17      29.86S VSB 1 1/2 WCI  23
CODY           CLOUDY    41  27  58 N7        29.86S
YELLOWSTONE LA CLOUDY    27  25  92 VRB5      29.99F WCI  21
SALMON         CLOUDY    34  30  85 CALM      30.09F
MULLAN PASS    SNOW      28  27  96 N7        30.07S VSB M1/4 WCI  21
SAND POINT     CLOUDY    36  36 100 CALM      30.16R
SPOKANE        LGT RAIN  39  37  93 N7        30.19R WCI  34

$$




USA.gov is the U.S. government's official web portal to all federal, state and local government web resources and services.